Wind_Speed
3 3 2 2 3 3 1 1 2 3 4 5 6 7 8 8 8 9 9 10 9 8 7 6 6 5 5 4 4 3 3 3 3 4 4 3 3 2 2 2 3 3 2 2 2 1 1 2 3
4 3 2 2 3 1 1 0 1 2 4 5 6 7 8 8 8 9 9 9 8 7 7 6 5 5 5 4 4 3 3 3 4 4 4 3 3 2 2 2 3 3 3 2 2 1 1 2 3
5 4 3 2 3 3 3 1 1 2 4 5 7 7 8 8 9 9 9 9 8 7 7 6 6 5 5 5 5 3 3 3 3 3 3 3 3 2 2 2 3 3 3 2 2 2 3 3 2
6 5 4 4 5 5 5 3 2 2 3 5 6 7 7 8 9 9 8 8 8 7 6 6 6 6 5 5 5 4 3 3 3 3 2 2 2 2 1 1 2 2 2 3 3 2 3 2 2
8 6 5 6 7 7 6 5 4 3 3 4 5 6 7 8 8 8 8 7 7 7 6 6 6 5 5 5 5 4 4 3 3 3 2 2 2 2 1 1 1 2 3 3 3 2 3 2 2
8 8 7 8 8 8 7 6 4 4 4 5 5 5 6 7 8 8 8 7 7 7 6 6 6 5 5 5 5 5 4 3 3 3 3 2 2 1 1 0 1 1 2 3 3 2 2 2 2
10 10 10 10 10 9 8 7 6 5 5 5 5 6 6 7 7 7 7 7 7 7 6 6 5 5 5 4 4 4 4 4 3 3 3 2 1 1 0 1 1 1 1 2 3 2 3 3 3
11 11 11 10 10 10 10 9 7 7 6 6 6 6 6 7 7 7 7 7 7 7 7 6 5 5 5 5 4 4 4 3 3 3 3 2 2 1 1 1 1 1 1 1 2 2 3 3 3
12 12 12 12 12 12 11 10 9 8 7 7 7 7 7 7 7 7 7 6 6 6 6 6 5 5 5 5 5 4 4 4 3 3 2 2 2 2 2 2 2 1 2 2 2 2 3 3 3
13 13 14 13 13 13 12 11 10 9 8 8 7 7 7 7 7 7 7 7 6 6 6 6 5 5 5 6 5 5 5 4 4 3 3 3 2 2 3 2 2 2 3 3 3 3 3 3 3
14 15 15 14 14 14 13 12 11 10 10 9 9 8 8 7 7 8 8 7 7 6 6 6 5 5 6 6 5 6 5 5 4 4 3 3 2 2 3 3 3 3 3 2 2 2 3 3 3
16 16 16 15 14 14 14 14 12 11 11 11 11 10 9 8 8 8 8 8 8 7 6 6 6 6 6 6 6 6 6 5 4 4 3 3 3 3 3 4 3 3 3 3 3 2 2 3 3
17 16 16 16 15 15 15 14 14 13 12 12 12 11 11 10 9 9 9 8 8 7 6 5 6 6 6 6 7 6 6 5 4 4 4 4 4 3 4 5 4 4 4 3 4 3 3 3 3
18 17 17 17 17 16 16 15 15 14 15 14 13 13 13 11 11 11 10 9 9 8 7 6 6 7 7 7 7 6 6 5 4 4 4 4 4 4 4 5 5 5 5 4 4 4 4 4 3
19 19 19 18 18 18 17 17 16 16 16 15 15 15 14 13 12 12 11 11 11 10 8 7 7 7 7 7 7 6 6 6 5 4 4 4 5 5 6 6 6 6 6 6 6 6 6 5 4
20 20 21 21 20 19 18 18 18 17 16 16 16 15 14 14 14 13 13 13 12 11 10 9 8 7 7 7 6 6 6 6 6 5 4 5 5 6 6 6 7 7 7 7 7 7 6 6 5
21 21 21 22 21 20 20 20 19 19 18 17 16 16 15 14 14 15 14 13 13 12 11 10 9 8 8 7 7 7 7 7 6 6 5 5 6 6 7 7 7 7 7 8 8 8 7 7 7
22 22 22 22 22 22 22 22 21 20 19 18 17 16 16 16 15 15 15 14 14 13 12 11 10 9 9 8 8 8 8 8 7 7 6 6 6 6 7 7 6 7 7 9 9 9 9 8 8
24 24 23 23 23 23 23 23 22 21 20 19 18 17 16 16 16 16 16 16 16 15 14 13 12 10 10 10 10 10 9 9 8 8 8 7 7 8 7 7 7 8 9 10 10 10 10 10 10
25 25 25 25 25 24 24 24 23 23 22 21 20 19 18 18 18 17 17 17 16 15 14 14 13 12 11 11 12 12 11 10 9 10 9 9 9 9 9 9 9 9 10 11 11 10 11 11 11
26 25 26 27 26 26 26 25 24 24 24 23 22 22 21 20 19 18 18 17 17 16 15 15 14 14 14 13 13 12 12 11 11 11 10 10 9 10 10 10 11 11 11 11 11 11 11 12 12
25 26 27 28 27 27 27 26 26 25 25 25 23 22 21 21 21 20 19 19 18 17 16 15 14 14 14 14 13 13 13 13 12 11 11 11 11 11 12 12 12 12 12 12 12 12 12 12 12
26 26 26 27 27 28 28 28 27 26 26 25 24 23 22 21 21 22 21 20 19 18 18 17 17 17 16 16 15 14 14 14 14 14 13 13 13 13 13 13 13 13 13 13 13 13 14 13 13
27 27 27 27 27 29 28 28 27 28 27 25 25 24 23 23 23 23 22 22 21 20 19 19 19 18 18 17 16 16 16 16 16 16 15 15 14 14 14 14 14 15 15 14 14 15 15 15 14
27 26 25 26 27 28 28 29 29 28 28 27 26 26 25 25 25 24 24 23 23 22 22 21 20 19 19 18 18 17 17 16 17 17 17 16 16 16 15 15 15 16 16 16 15 16 16 16 16
27 26 25 25 25 26 29 30 30 28 28 27 26 27 26 26 25 25 25 24 24 23 23 21 19 20 20 19 19 18 18 18 18 18 18 18 18 17 17 17 17 16 17 16 16 17 17 17 16
28 28 26 27 26 27 28 31 30 29 28 28 27 27 26 26 27 26 25 25 25 23 23 22 21 22 22 21 20 20 20 20 20 20 20 19 19 18 18 18 18 18 18 18 18 18 18 17 18
28 28 28 27 27 27 27 29 29 28 28 28 27 27 27 27 27 27 26 26 26 25 25 24 24 24 23 22 22 22 22 22 22 22 21 21 20 20 20 19 19 19 19 20 20 20 20 20 20
27 27 28 28 28 27 26 26 28 28 28 28 26 27 27 28 27 27 26 27 27 27 26 24 25 25 25 24 23 23 23 22 22 22 22 22 21 21 21 21 21 21 21 22 22 22 22 22 22
26 27 28 29 29 29 26 26 28 27 27 26 26 26 27 27 28 28 28 29 28 28 27 26 26 26 26 24 23 23 24 23 22 22 22 22 22 22 22 22 22 22 22 23 23 23 23 24 24
Wind_Direction
189 185 162 128 97 93 129 30 30 43 48 50 48 45 44 43 37 26 20 16 16 18 19 19 18 18 22 28 35 45 61 72 77 72 80 86 93 106 115 125 133 138 152 163 151 130 118 143 167
202 207 187 153 117 174 239 251 28 38 41 38 33 31 31 32 27 22 17 16 14 15 16 14 13 12 17 20 24 48 67 73 76 71 77 84 88 101 120 139 146 154 170 198 212 204 174 160 167
212 211 207 185 185 210 238 244 333 16 26 30 25 20 22 19 18 14 14 15 15 17 18 12 10 12 15 25 38 58 63 62 66 65 71 77 81 79 111 144 161 165 179 207 214 209 195 174 177
219 218 220 221 231 237 249 256 284 332 1 19 17 12 14 13 10 5 5 12 13 14 13 8 9 12 18 27 42 48 49 47 49 56 57 59 62 68 94 153 182 186 200 207 209 221 207 199 208
223 224 225 233 239 251 260 263 280 310 333 355 5 5 5 7 6 4 5 12 11 10 6 3 4 6 12 23 31 33 36 35 38 39 40 38 40 54 50 157 206 214 220 229 230 224 212 223 232
221 226 225 232 243 253 256 260 274 299 314 330 338 347 353 358 0 2 3 8 7 4 1 358 355 355 359 14 21 22 25 33 36 36 34 46 45 29 36 193 236 252 232 229 227 216 229 234 237
228 228 229 234 238 249 253 258 267 284 301 311 321 327 338 350 355 359 0 0 0 358 355 349 348 351 356 4 7 15 22 28 30 31 28 34 28 350 290 238 264 271 239 221 222 229 234 238 235
234 232 229 235 239 246 253 256 265 273 291 300 305 317 327 340 345 350 353 351 350 348 347 340 344 351 353 358 2 6 12 9 8 12 15 6 340 336 348 265 269 271 246 224 221 226 231 235 241
235 232 233 235 239 244 250 255 261 271 281 291 298 311 322 330 334 337 344 346 344 341 339 336 333 340 347 351 352 352 350 346 347 349 353 348 324 304 279 281 272 261 253 240 238 237 234 237 248
236 234 237 239 242 245 249 253 259 264 270 280 291 302 314 322 324 326 332 336 339 338 336 337 330 332 338 341 340 339 337 333 334 334 340 342 333 311 282 270 248 249 262 254 256 249 236 242 253
241 239 243 243 244 246 249 252 257 261 265 273 282 294 305 313 313 313 320 323 325 326 327 330 328 331 334 334 335 333 331 327 323 320 324 320 330 318 302 282 253 254 263 262 264 247 238 242 251
244 244 244 245 247 249 252 254 254 256 260 266 275 286 294 301 303 302 308 311 312 312 313 318 323 327 327 331 333 330 324 324 322 319 318 309 308 310 302 293 272 268 266 259 256 247 249 256 256
244 247 248 248 249 252 256 254 251 253 256 261 268 277 284 288 290 289 292 297 303 303 306 311 316 317 316 319 328 329 322 321 321 323 320 307 295 291 290 290 274 261 265 252 246 241 243 265 268
244 247 250 250 250 252 256 251 251 253 256 258 264 272 277 280 281 282 281 282 288 292 295 301 307 310 311 316 321 326 321 322 321 320 319 311 304 295 283 285 271 261 261 256 252 250 245 252 264
247 249 250 250 252 254 256 253 253 255 255 257 262 267 270 273 276 278 278 277 281 283 285 290 296 299 305 311 315 323 321 320 316 313 314 314 308 299 285 278 271 263 262 261 260 259 258 256 263
247 249 250 251 252 252 254 255 255 257 255 257 261 263 266 268 274 275 277 276 275 276 278 283 287 287 293 299 306 313 314 317 313 307 303 304 306 299 291 281 271 261 256 256 261 261 260 262 268
246 247 248 251 251 251 251 253 254 255 254 257 259 260 263 267 268 271 272 271 272 271 273 276 278 275 281 287 292 298 302 305 308 305 297 300 302 299 291 284 275 268 259 257 261 262 265 267 269
247 248 249 251 251 250 250 251 252 253 253 255 258 260 262 265 264 265 265 267 268 268 268 268 269 274 277 280 285 291 294 293 296 295 293 297 295 297 294 284 276 269 263 261 262 264 265 268 270
246 246 248 250 251 252 252 252 252 251 253 255 258 261 263 264 263 262 261 261 263 264 266 266 264 268 270 276 281 285 287 289 285 288 292 285 284 288 288 282 278 271 268 266 265 265 265 267 271
247 247 248 250 251 252 252 252 253 252 253 254 257 260 261 263 263 260 259 259 259 261 261 258 259 264 267 272 277 283 283 284 284 282 285 285 283 281 283 283 281 275 270 268 264 263 265 268 272
248 248 249 251 253 255 255 254 253 253 253 253 256 258 259 261 261 258 256 257 258 258 257 254 260 265 268 271 276 281 278 280 280 279 282 284 285 284 283 283 280 276 273 271 265 262 264 267 270
249 248 249 251 252 255 256 257 255 254 254 254 254 254 255 257 258 256 254 253 256 257 256 258 264 269 269 271 277 277 275 276 280 284 286 285 285 285 285 283 279 276 274 271 266 264 263 267 269
248 249 250 253 254 254 255 255 256 255 254 253 253 253 253 255 256 255 254 252 254 256 256 257 262 266 268 270 273 274 273 273 275 279 282 283 283 284 285 284 280 277 274 270 266 267 267 269 270
247 248 251 253 255 255 255 255 256 256 254 252 252 252 253 253 254 253 254 253 253 253 256 258 260 262 265 267 270 273 274 273 274 278 281 282 283 283 283 283 280 277 275 275 269 271 271 270 270
247 249 251 253 254 257 257 257 255 257 255 254 252 251 252 252 251 253 254 254 251 253 256 257 257 259 262 265 268 270 270 272 273 276 278 281 282 282 281 281 279 277 275 275 273 271 270 271 270
248 248 248 251 254 258 258 257 258 258 257 255 252 251 251 250 250 251 251 252 251 252 256 255 257 259 261 263 265 267 269 271 271 273 277 279 280 280 282 281 280 278 276 274 273 272 271 271 270
249 248 248 251 254 255 258 260 261 259 257 256 254 252 251 249 248 250 250 250 250 251 253 256 259 261 262 262 262 266 267 269 269 271 274 278 279 280 281 278 278 277 277 276 274 273 272 270 270
250 249 248 250 253 255 259 261 260 261 260 257 254 253 250 247 247 248 249 250 248 249 253 256 258 261 262 262 261 263 266 268 268 268 273 275 277 278 279 277 276 275 275 273 272 272 270 269 269
251 250 249 250 251 252 258 261 262 263 260 257 254 251 248 245 244 245 247 248 247 250 253 256 258 260 262 262 260 261 264 266 267 269 272 275 275 274 276 276 276 274 274 272 271 271 270 269 270
251 251 250 250 253 253 256 260 261 262 259 254 252 248 245 244 243 245 247 248 250 251 253 256 258 259 260 260 260 263 264 264 266 269 270 272 273 272 273 274 275 275 274 273 273 271 270 270 270
Height
5907 5907 5908 5909 5911 5912 5911 5910 5908 5907 5906 5905 5904 5903 5902 5901 5901 5902 5898 5895 5894 5892 5891 5890 5889 5888 5886 5885 5883 5882 5882 5881 5881 5880 5880 5879 5879 5878 5878 5878 5878 5878 5878 5878 5878 5878 5877 5877 5877
5906 5907 5909 5910 5912 5913 5911 5909 5908 5907 5906 5905 5904 5903 5901 5900 5900 5898 5896 5895 5894 5892 5891 5890 5889 5887 5886 5884 5881 5881 5881 5881 5880 5880 5879 5879 5878 5878 5878 5878 5878 5878 5878 5877 5877 5877 5877 5877 5877
5906 5907 5909 5910 5911 5912 5911 5909 5908 5907 5906 5905 5904 5903 5902 5900 5899 5898 5896 5895 5894 5892 5891 5890 5888 5887 5885 5883 5880 5880 5881 5881 5880 5880 5879 5879 5878 5878 5878 5877 5877 5877 5877 5877 5877 5877 5876 5877 5877
5905 5907 5909 5911 5910 5910 5909 5909 5908 5907 5906 5905 5904 5903 5901 5900 5899 5897 5896 5895 5893 5892 5891 5890 5888 5887 5885 5884 5882 5881 5881 5880 5879 5879 5879 5878 5878 5878 5877 5877 5877 5877 5877 5876 5876 5876 5876 5876 5877
5904 5906 5909 5909 5909 5909 5908 5908 5907 5907 5906 5905 5904 5903 5901 5900 5898 5897 5895 5894 5893 5892 5891 5890 5888 5887 5886 5884 5883 5882 5881 5880 5879 5878 5878 5878 5877 5877 5877 5876 5876 5876 5876 5876 5876 5876 5876 5876 5876
5903 5905 5908 5908 5908 5907 5907 5907 5907 5906 5905 5905 5904 5902 5901 5900 5898 5897 5895 5894 5893 5892 5891 5889 5888 5887 5886 5884 5883 5882 5881 5880 5879 5878 5878 5877 5877 5876 5876 5875 5875 5875 5875 5875 5875 5875 5876 5876 5876
5902 5904 5905 5906 5906 5906 5906 5906 5906 5905 5905 5904 5903 5902 5900 5899 5897 5896 5895 5894 5893 5892 5890 5889 5888 5887 5885 5884 5883 5882 5881 5880 5879 5878 5877 5877 5876 5875 5875 5875 5875 5874 5874 5874 5875 5875 5875 5875 5875
5899 5902 5903 5904 5904 5905 5904 5904 5904 5904 5904 5903 5902 5901 5900 5899 5897 5896 5895 5894 5893 5891 5890 5889 5888 5886 5885 5884 5882 5881 5880 5880 5879 5878 5877 5876 5875 5875 5874 5874 5874 5874 5874 5874 5874 5874 5874 5874 5874
5897 5900 5901 5902 5902 5903 5902 5903 5903 5902 5902 5902 5901 5900 5899 5898 5897 5896 5895 5893 5892 5891 5890 5889 5887 5886 5885 5883 5882 5881 5880 5879 5878 5877 5876 5875 5875 5874 5874 5874 5873 5873 5873 5873 5873 5873 5873 5873 5873
5894 5897 5898 5898 5899 5900 5900 5901 5901 5901 5900 5900 5899 5899 5898 5897 5896 5895 5894 5893 5892 5891 5890 5889 5887 5886 5885 5883 5882 5881 5879 5878 5877 5876 5875 5875 5874 5873 5873 5873 5872 5872 5872 5872 5872 5872 5872 5872 5872
5891 5893 5894 5895 5896 5897 5897 5898 5899 5899 5899 5898 5898 5897 5896 5896 5895 5894 5894 5892 5891 5890 5889 5888 5887 5885 5884 5883 5882 5880 5879 5878 5877 5876 5875 5874 5873 5873 5872 5872 5871 5871 5871 5871 5871 5871 5871 5871 5871
5888 5889 5890 5892 5893 5894 5895 5895 5896 5896 5897 5896 5896 5895 5895 5894 5894 5893 5893 5891 5890 5889 5889 5888 5886 5885 5884 5883 5881 5880 5878 5877 5876 5875 5874 5873 5872 5872 5871 5871 5870 5870 5870 5870 5870 5870 5870 5870 5870
5885 5886 5887 5888 5889 5890 5891 5892 5893 5893 5894 5893 5893 5893 5893 5893 5892 5892 5891 5890 5889 5888 5887 5886 5885 5884 5883 5882 5880 5879 5878 5876 5875 5874 5873 5872 5871 5871 5870 5870 5870 5870 5870 5870 5870 5869 5869 5869 5869
5881 5882 5883 5885 5886 5887 5888 5889 5890 5890 5890 5891 5891 5891 5890 5890 5890 5890 5889 5889 5888 5887 5886 5885 5884 5883 5882 5881 5880 5878 5877 5875 5874 5873 5872 5871 5871 5870 5869 5869 5868 5869 5869 5868 5868 5869 5869 5868 5868
5877 5879 5880 5881 5882 5883 5885 5886 5886 5886 5887 5887 5888 5888 5888 5888 5888 5888 5887 5887 5886 5885 5884 5883 5882 5882 5881 5880 5878 5877 5876 5874 5873 5872 5871 5870 5870 5869 5868 5868 5867 5867 5867 5867 5867 5867 5867 5867 5867
5873 5875 5876 5877 5878 5879 5882 5882 5882 5882 5883 5884 5884 5885 5885 5885 5885 5885 5885 5884 5884 5883 5883 5882 5881 5880 5879 5878 5877 5876 5875 5873 5872 5871 5870 5869 5869 5868 5867 5867 5866 5866 5866 5866 5866 5866 5866 5866 5866
5869 5871 5872 5873 5873 5874 5876 5878 5878 5878 5879 5880 5880 5881 5881 5882 5882 5882 5882 5881 5881 5881 5880 5879 5878 5877 5877 5876 5875 5874 5873 5872 5871 5870 5869 5868 5867 5866 5866 5865 5865 5864 5865 5865 5865 5865 5865 5865 5864
5865 5866 5867 5868 5868 5869 5871 5872 5873 5874 5874 5876 5876 5877 5878 5878 5878 5878 5878 5878 5878 5877 5877 5876 5876 5875 5874 5874 5873 5872 5872 5871 5870 5869 5868 5867 5866 5865 5864 5864 5863 5863 5863 5863 5863 5863 5863 5863 5863
5858 5860 5861 5862 5863 5864 5865 5867 5868 5869 5870 5871 5872 5873 5873 5874 5874 5874 5874 5875 5874 5874 5873 5873 5873 5873 5872 5872 5871 5870 5870 5869 5867 5866 5866 5865 5864 5863 5863 5862 5861 5861 5861 5861 5861 5861 5861 5861 5861
5852 5854 5855 5856 5857 5858 5859 5861 5863 5864 5865 5866 5867 5868 5868 5869 5870 5870 5870 5870 5870 5870 5869 5869 5870 5870 5870 5869 5869 5868 5867 5866 5865 5864 5863 5863 5862 5861 5861 5860 5860 5859 5859 5859 5858 5858 5858 5858 5858
5846 5848 5849 5850 5851 5852 5853 5855 5857 5858 5859 5861 5862 5863 5864 5864 5865 5865 5866 5866 5866 5866 5866 5865 5866 5866 5866 5866 5866 5865 5864 5863 5861 5860 5861 5860 5860 5859 5858 5858 5857 5857 5856 5856 5856 5856 5856 5856 5856
5839 5841 5842 5843 5845 5846 5848 5849 5851 5851 5853 5855 5856 5857 5858 5859 5860 5860 5861 5861 5862 5862 5862 5863 5863 5863 5863 5863 5862 5862 5861 5861 5859 5858 5858 5857 5857 5856 5856 5855 5854 5854 5853 5853 5853 5853 5853 5853 5853
5833 5834 5835 5836 5838 5840 5841 5842 5845 5845 5846 5848 5850 5851 5852 5854 5855 5855 5856 5856 5857 5858 5858 5859 5859 5859 5859 5859 5859 5859 5858 5857 5857 5856 5855 5854 5854 5853 5853 5852 5851 5851 5850 5850 5849 5849 5850 5850 5850
5825 5827 5828 5829 5831 5832 5835 5836 5838 5838 5839 5842 5844 5845 5846 5848 5849 5850 5850 5851 5852 5853 5854 5854 5855 5855 5855 5855 5855 5855 5854 5854 5853 5852 5852 5851 5850 5850 5849 5848 5848 5847 5847 5846 5846 5846 5846 5846 5846
5818 5821 5823 5824 5825 5827 5828 5828 5830 5831 5833 5835 5837 5838 5840 5841 5842 5844 5844 5845 5847 5848 5849 5849 5850 5850 5851 5851 5851 5850 5850 5849 5849 5849 5848 5848 5847 5846 5845 5845 5844 5843 5843 5842 5842 5842 5842 5842 5842
5812 5815 5818 5820 5821 5822 5820 5820 5822 5824 5825 5826 5829 5831 5832 5834 5835 5837 5838 5839 5841 5842 5843 5843 5844 5845 5845 5846 5846 5846 5846 5845 5845 5844 5844 5843 5843 5842 5841 5840 5839 5839 5838 5837 5838 5838 5838 5838 5838
5804 5807 5810 5811 5812 5813 5813 5812 5814 5815 5817 5819 5821 5823 5824 5826 5828 5830 5832 5833 5834 5836 5837 5838 5839 5840 5840 5840 5840 5841 5841 5840 5840 5840 5839 5839 5838 5837 5837 5836 5835 5835 5834 5833 5833 5833 5833 5833 5833
5797 5799 5801 5802 5804 5805 5806 5806 5807 5807 5809 5811 5812 5814 5816 5818 5820 5822 5824 5826 5828 5830 5831 5832 5833 5833 5834 5834 5834 5835 5835 5835 5834 5834 5834 5833 5833 5832 5831 5830 5830 5829 5829 5828 5828 5828 5828 5828 5828
5789 5791 5792 5795 5796 5798 5800 5802 5799 5800 5801 5803 5805 5806 5808 5811 5813 5815 5817 5819 5821 5823 5824 5825 5826 5827 5827 5828 5829 5829 5829 5828 5828 5828 5828 5828 5827 5826 5826 5825 5824 5824 5823 5823 5822 5822 5822 5822 5822
5782 5783 5785 5787 5787 5789 5791 5794 5791 5792 5793 5795 5797 5798 5800 5803 5805 5808 5810 5812 5814 5815 5817 5818 5819 5820 5820 5821 5822 5822 5822 5822 5822 5822 5822 5821 5821 5820 5820 5819 5818 5817 5817 5816 5816 5816 5816 5815 5815